AirNav   Air Wisconsin pilot careers
 
 940 users online  

LA81 Sonlef Air Strip
Benton, Louisiana, USA

GOING TO BENTON?


FAA INFORMATION EFFECTIVE 24 MAY 2018

Location

FAA Identifier: LA81
Lat/Long: 32-37-47.4500N / 093-39-27.4600W
32-37.790833N / 093-39.457667W
32.6298472 / -93.6576278
(estimated)
Elevation: 165 ft. / 50 m
From city: 6 miles SE of BENTON, LA
Time zone: UTC -5 (UTC -6 during Standard Time)
Zip code: 71006

Airport Operations

Airport use: Private use. Permission required prior to landing
Activation date: 04/2015
Control tower: no
ARTCC: FORT WORTH CENTER
FSS: DE RIDDER FLIGHT SERVICE STATION
Attendance: 
Wind indicator: yes
Segmented circle: no

Airport Communications

WX ASOS at DTN (7 nm SW): 118.525 (318-425-7967)
WX ASOS at SHV (14 nm SW): PHONE 318-636-5767
WX AWOS-3PT at MNE (18 nm E): 119.325 (318-371-7874)

Nearby radio navigation aids

VOR radial/distance  VOR name  Freq  Var
EICr131/11.5BELCHER VORTAC117.4007E
EMGr340/14.1ELM GROVE VORTAC111.2007E

 
NDB name  Hdg/Dist  Freq  Var  ID
MANSFIELD005/34.441404EMSD -- ... -..
ATLANTA133/39.134704EATA .- - .-

Airport Services

Runway Information

Runway 9/27

Dimensions: 2200 x 75 ft. / 671 x 23 m
Surface: turf
RUNWAY 9  RUNWAY 27
Latitude: 32-37.790833N
Longitude: 093-39.458000W
Elevation: 165.0 ft.
Traffic pattern: leftleft

Airport Ownership and Management from official FAA records

Ownership: Privately-owned
Owner: ATKINS SONNIER FAMILY LDS, LLC
PO BOX 72359
BOSSIER CITY, LA 71172-2369
Phone 318-746-7000
Manager: DONALD SONNIER
PO BOX 72359
BOSSIER CITY, LA 71172-2369
Phone 318-423-4360

Instrument Procedures

There are no published instrument procedures at LA81.

Some nearby airports with instrument procedures:

KDTN - Shreveport Downtown Airport (7 nm SW)
KBAD - Barksdale Air Force Base (8 nm S)
KSHV - Shreveport Regional Airport (14 nm SW)
KMNE - Minden Airport (18 nm E)
3F4 - Vivian Airport (23 nm NW)
 
Loc | Ops | Rwys | IFR | FBO | Links
Com | Nav | Svcs | Stats | Notes

AirNav Hotels Sweepstakes
 
Aerial photo
No photo
 
Airport distance calculator
Flying to Sonlef Air Strip? Find the distance to fly.

From to LA81

Sunrise and sunset
Times for 26-May-2018
 Local
(UTC-5)
 Zulu
(UTC)
Morning civil twilight05:4310:43
Sunrise06:1111:11
Sunset20:1201:12
Evening civil twilight20:4001:40

Current date and time
Zulu (UTC)  26-May-2018 17:59:54
Local (UTC-5)  26-May-2018 12:59:54
 
METAR
KDTN 
7nm SW 
261753Z 10SM CLR 33/19 A2984 RMK AO2 SLP102 T03330194 10333 20239 58010 $
KBAD 
8nm S 
261656Z AUTO 23006KT 10SM CLR 31/21 A2986 RMK AO2 SLP113 T03070212
KSHV 
14nm SW 
261656Z 28008KT 10SM SCT047 SCT090 SCT280 32/23 A2986 RMK AO2 SLP106 T03170228
KMNE 
18nm E 
261735Z AUTO 22003KT 10SM SCT033 SCT039 32/22 A2987 RMK AO2 LTG DSNT SW T03190215
TAF
KSHV 
14nm SW 
261727Z 2618/2718 26007KT P6SM VCTS SCT060CB SCT250 FM270100 VRB04KT P6SM SCT050 SCT120 FM270800 00000KT 4SM BR SCT010 FM271500 04005KT P6SM FEW010 SCT030
NOTAMs
Click for the latest NOTAMs
NOTAMs are issued by the DoD/FAA and will open in a separate window not controlled by AirNav.

 

 
 

Would you like to see your business listed on this page?

 If your business provides an interesting product or service to pilots, flight crews, aircraft, or users of the Sonlef Air Strip, you should consider listing it here.  To start the listing process, click on the button below
 
Add a business
 

Other Pages about Sonlef Air Strip

Update a link
 
Copyright © AirNav, LLC. All rights reserved. Privacy Policy  Contact